Data No,UTC Date,UTC Time,Latitude,Longitude,Course(deg),Temp(degC),Sal(psu)
495,2023/9/23,8:14,42-36.80N,141-36.98E,209,21.388,
496,2023/9/23,8:15,42-36.53N,141-36.89E,185,21.419,
497,2023/9/23,8:16,42-36.26N,141-36.90E,178,20.869,
498,2023/9/23,8:17,42-35.98N,141-36.91E,178,21.071,
499,2023/9/23,8:18,42-35.69N,141-36.91E,179,20.918,
500,2023/9/23,8:19,42-35.41N,141-36.91E,180,21.218,
501,2023/9/23,8:20,42-35.11N,141-36.91E,180,21.484,
502,2023/9/23,8:21,42-34.83N,141-36.91E,179,21.562,
503,2023/9/23,8:22,42-34.54N,141-36.91E,179,21.686,
504,2023/9/23,8:23,42-34.25N,141-36.92E,179,21.968,
505,2023/9/23,8:24,42-33.97N,141-36.91E,180,22.178,
506,2023/9/23,8:25,42-33.68N,141-36.91E,180,22.25,
507,2023/9/23,8:26,42-33.39N,141-36.91E,180,22.295,
508,2023/9/23,8:27,42-33.11N,141-36.91E,180,22.317,
509,2023/9/23,8:28,42-32.82N,141-36.90E,180,22.298,
510,2023/9/23,8:29,42-32.54N,141-36.90E,180,22.285,
511,2023/9/23,8:30,42-32.25N,141-36.90E,180,22.309,
512,2023/9/23,8:31,42-31.97N,141-36.90E,180,22.313,
513,2023/9/23,8:32,42-31.69N,141-36.89E,180,22.34,
514,2023/9/23,8:33,42-31.39N,141-36.89E,180,22.361,
515,2023/9/23,8:34,42-31.12N,141-36.89E,180,22.351,
516,2023/9/23,8:35,42-30.83N,141-36.88E,180,22.326,
517,2023/9/23,8:36,42-30.54N,141-36.88E,180,22.298,
518,2023/9/23,8:37,42-30.26N,141-36.87E,180,22.291,
519,2023/9/23,8:38,42-29.97N,141-36.87E,180,22.278,
520,2023/9/23,8:39,42-29.68N,141-36.86E,180,22.217,
521,2023/9/23,8:40,42-29.41N,141-36.86E,180,22.177,
522,2023/9/23,8:41,42-29.12N,141-36.86E,180,22.154,
523,2023/9/23,8:42,42-28.83N,141-36.85E,180,22.147,
524,2023/9/23,8:43,42-28.55N,141-36.84E,180,22.12,
525,2023/9/23,8:44,42-28.26N,141-36.84E,180,22.088,
526,2023/9/23,8:45,42-27.98N,141-36.83E,180,22.08,
527,2023/9/23,8:46,42-27.69N,141-36.83E,180,22.076,
528,2023/9/23,8:47,42-27.40N,141-36.82E,180,22.006,
529,2023/9/23,8:48,42-27.11N,141-36.82E,180,21.933,
530,2023/9/23,8:49,42-26.83N,141-36.81E,180,21.918,
531,2023/9/23,8:50,42-26.54N,141-36.81E,180,21.896,
532,2023/9/23,8:51,42-26.25N,141-36.80E,180,21.895,
533,2023/9/23,8:52,42-25.97N,141-36.80E,180,21.902,
534,2023/9/23,8:53,42-25.68N,141-36.79E,180,21.906,
535,2023/9/23,8:54,42-25.38N,141-36.79E,180,21.955,
536,2023/9/23,8:55,42-25.11N,141-36.79E,180,21.959,
537,2023/9/23,8:56,42-24.81N,141-36.78E,180,21.952,
538,2023/9/23,8:57,42-24.53N,141-36.78E,180,21.96,
539,2023/9/23,8:58,42-24.23N,141-36.77E,180,21.972,
540,2023/9/23,8:59,42-23.95N,141-36.77E,180,21.994,
541,2023/9/23,9:00,42-23.66N,141-36.76E,180,22.04,
542,2023/9/23,9:01,42-23.36N,141-36.76E,180,22.046,
543,2023/9/23,9:02,42-23.08N,141-36.75E,180,22.015,
544,2023/9/23,9:03,42-22.79N,141-36.74E,180,22.034,
545,2023/9/23,9:04,42-22.50N,141-36.74E,180,22.047,
546,2023/9/23,9:05,42-22.22N,141-36.74E,180,22.082,
547,2023/9/23,9:06,42-21.92N,141-36.73E,180,22.106,
548,2023/9/23,9:07,42-21.64N,141-36.73E,180,22.179,
549,2023/9/23,9:08,42-21.34N,141-36.73E,180,22.154,
550,2023/9/23,9:09,42-21.05N,141-36.72E,180,22.099,
551,2023/9/23,9:10,42-20.76N,141-36.72E,180,22.07,
552,2023/9/23,9:11,42-20.46N,141-36.72E,180,22.027,
553,2023/9/23,9:12,42-20.18N,141-36.72E,179,21.965,
554,2023/9/23,9:13,42-19.89N,141-36.72E,180,21.924,
555,2023/9/23,9:14,42-19.61N,141-36.72E,180,21.884,
556,2023/9/23,9:15,42-19.31N,141-36.72E,179,21.849,
557,2023/9/23,9:16,42-19.02N,141-36.72E,179,21.833,
558,2023/9/23,9:17,42-18.73N,141-36.72E,180,21.818,
559,2023/9/23,9:18,42-18.45N,141-36.72E,180,21.817,
560,2023/9/23,9:19,42-18.16N,141-36.72E,179,21.839,
561,2023/9/23,9:20,42-17.86N,141-36.73E,179,21.861,
562,2023/9/23,9:21,42-17.57N,141-36.73E,179,21.894,
563,2023/9/23,9:22,42-17.28N,141-36.73E,179,21.901,
564,2023/9/23,9:23,42-16.98N,141-36.72E,180,21.899,
565,2023/9/23,9:24,42-16.69N,141-36.73E,179,21.895,
566,2023/9/23,9:25,42-16.40N,141-36.73E,180,21.909,
567,2023/9/23,9:26,42-16.10N,141-36.73E,180,21.921,
568,2023/9/23,9:27,42-15.82N,141-36.72E,180,21.922,
569,2023/9/23,9:28,42-15.52N,141-36.72E,180,21.936,
570,2023/9/23,9:29,42-15.23N,141-36.72E,180,21.947,
571,2023/9/23,9:30,42-14.94N,141-36.71E,180,21.941,
572,2023/9/23,9:31,42-14.64N,141-36.71E,180,21.96,
573,2023/9/23,9:32,42-14.35N,141-36.71E,180,21.971,
574,2023/9/23,9:33,42-14.05N,141-36.70E,180,21.976,
575,2023/9/23,9:34,42-13.75N,141-36.70E,180,21.983,
576,2023/9/23,9:35,42-13.46N,141-36.70E,180,21.978,
577,2023/9/23,9:36,42-13.16N,141-36.69E,180,21.96,
578,2023/9/23,9:37,42-12.86N,141-36.68E,181,21.929,
579,2023/9/23,9:38,42-12.57N,141-36.68E,180,21.868,
580,2023/9/23,9:39,42-12.27N,141-36.68E,180,21.829,
581,2023/9/23,9:40,42-11.99N,141-36.67E,180,21.779,
582,2023/9/23,9:41,42-11.69N,141-36.67E,180,21.758,
583,2023/9/23,9:42,42-11.40N,141-36.66E,180,21.738,
584,2023/9/23,9:43,42-11.11N,141-36.65E,180,21.735,
585,2023/9/23,9:44,42-10.81N,141-36.65E,180,21.732,
586,2023/9/23,9:45,42-10.52N,141-36.65E,180,21.732,
587,2023/9/23,9:46,42-10.21N,141-36.64E,180,21.737,
588,2023/9/23,9:47,42-09.93N,141-36.63E,180,21.756,
589,2023/9/23,9:48,42-09.63N,141-36.63E,180,21.781,
590,2023/9/23,9:49,42-09.34N,141-36.62E,180,21.792,
591,2023/9/23,9:50,42-09.05N,141-36.62E,180,21.809,
592,2023/9/23,9:51,42-08.75N,141-36.61E,181,21.84,
593,2023/9/23,9:52,42-08.46N,141-36.60E,180,21.874,
594,2023/9/23,9:53,42-08.16N,141-36.59E,181,21.892,
595,2023/9/23,9:54,42-07.86N,141-36.58E,181,21.89,
596,2023/9/23,9:55,42-07.56N,141-36.57E,181,21.895,
597,2023/9/23,9:56,42-07.27N,141-36.56E,181,21.842,
598,2023/9/23,9:57,42-06.96N,141-36.55E,181,21.7,
599,2023/9/23,9:58,42-06.68N,141-36.53E,181,21.632,
600,2023/9/23,9:59,42-06.38N,141-36.52E,182,21.574,
601,2023/9/23,10:00,42-06.07N,141-36.50E,182,21.569,
602,2023/9/23,10:01,42-05.78N,141-36.49E,182,21.585,
603,2023/9/23,10:02,42-05.48N,141-36.47E,181,21.646,
604,2023/9/23,10:03,42-05.20N,141-36.45E,182,21.591,
605,2023/9/23,10:04,42-04.89N,141-36.44E,182,21.544,
606,2023/9/23,10:05,42-04.60N,141-36.42E,182,21.542,
607,2023/9/23,10:06,42-04.30N,141-36.40E,182,21.551,
608,2023/9/23,10:07,42-03.99N,141-36.38E,182,21.553,
609,2023/9/23,10:08,42-03.71N,141-36.37E,181,21.551,
610,2023/9/23,10:09,42-03.40N,141-36.36E,180,21.539,
611,2023/9/23,10:10,42-03.11N,141-36.36E,180,21.529,
612,2023/9/23,10:11,42-02.81N,141-36.35E,180,21.492,
613,2023/9/23,10:12,42-02.51N,141-36.35E,180,21.445,
614,2023/9/23,10:13,42-02.21N,141-36.34E,181,21.392,
615,2023/9/23,10:14,42-01.91N,141-36.33E,180,21.343,
616,2023/9/23,10:15,42-01.62N,141-36.32E,181,21.291,
617,2023/9/23,10:16,42-01.31N,141-36.31E,181,21.257,
618,2023/9/23,10:17,42-01.02N,141-36.30E,181,21.23,
619,2023/9/23,10:18,42-00.72N,141-36.29E,181,21.175,
620,2023/9/23,10:19,42-00.42N,141-36.28E,181,21.158,
621,2023/9/23,10:20,42-00.13N,141-36.27E,181,21.135,
622,2023/9/23,10:21,41-59.84N,141-36.25E,181,21.087,
623,2023/9/23,10:22,41-59.55N,141-36.24E,181,21.036,
624,2023/9/23,10:23,41-59.25N,141-36.24E,181,20.946,
625,2023/9/23,10:24,41-58.96N,141-36.23E,181,20.913,
626,2023/9/23,10:25,41-58.67N,141-36.22E,180,20.849,
627,2023/9/23,10:26,41-58.36N,141-36.22E,180,20.861,
628,2023/9/23,10:27,41-58.08N,141-36.21E,180,20.875,
629,2023/9/23,10:28,41-57.79N,141-36.20E,181,20.885,
630,2023/9/23,10:29,41-57.49N,141-36.19E,181,20.906,
631,2023/9/23,10:30,41-57.20N,141-36.19E,180,20.931,
632,2023/9/23,10:31,41-56.90N,141-36.18E,180,21.001,
633,2023/9/23,10:32,41-56.61N,141-36.17E,180,21.041,
634,2023/9/23,10:33,41-56.32N,141-36.17E,180,21.054,
635,2023/9/23,10:34,41-56.03N,141-36.17E,180,21.063,
636,2023/9/23,10:35,41-55.73N,141-36.16E,180,21.06,
637,2023/9/23,10:36,41-55.44N,141-36.16E,180,21.041,
638,2023/9/23,10:37,41-55.16N,141-36.15E,180,21.117,
639,2023/9/23,10:38,41-54.87N,141-36.15E,180,21.179,
640,2023/9/23,10:39,41-54.57N,141-36.14E,180,21.17,
641,2023/9/23,10:40,41-54.28N,141-36.14E,180,21.283,
642,2023/9/23,10:41,41-54.00N,141-36.13E,180,21.399,
643,2023/9/23,10:42,41-53.71N,141-36.13E,180,21.534,
644,2023/9/23,10:43,41-53.43N,141-36.13E,180,21.586,
645,2023/9/23,10:44,41-53.13N,141-36.12E,180,21.52,
646,2023/9/23,10:45,41-52.86N,141-36.11E,180,21.49,
647,2023/9/23,10:46,41-52.58N,141-36.11E,180,21.479,
648,2023/9/23,10:47,41-52.30N,141-36.10E,180,21.464,
649,2023/9/23,10:48,41-52.01N,141-36.09E,180,21.437,
650,2023/9/23,10:49,41-51.72N,141-36.09E,181,21.391,
651,2023/9/23,10:50,41-51.43N,141-36.08E,180,21.368,
652,2023/9/23,10:51,41-51.14N,141-36.08E,180,21.329,
653,2023/9/23,10:52,41-50.87N,141-36.07E,180,21.408,
654,2023/9/23,10:53,41-50.58N,141-36.07E,180,21.59,
655,2023/9/23,10:54,41-50.30N,141-36.06E,180,21.638,
656,2023/9/23,10:55,41-50.02N,141-36.06E,180,21.659,
657,2023/9/23,10:56,41-49.73N,141-36.06E,180,21.658,
658,2023/9/23,10:57,41-49.46N,141-36.05E,180,21.668,
659,2023/9/23,10:58,41-49.17N,141-36.05E,179,21.616,
660,2023/9/23,10:59,41-48.88N,141-36.06E,180,21.639,
661,2023/9/23,11:00,41-48.60N,141-36.06E,179,21.805,
662,2023/9/23,11:01,41-48.32N,141-36.06E,179,21.961,
663,2023/9/23,11:02,41-48.05N,141-36.07E,179,22.023,
664,2023/9/23,11:03,41-47.77N,141-36.07E,179,22.06,
665,2023/9/23,11:04,41-47.48N,141-36.08E,179,22.086,
666,2023/9/23,11:05,41-47.20N,141-36.08E,178,22.066,
667,2023/9/23,11:06,41-46.90N,141-36.09E,178,22.067,
668,2023/9/23,11:07,41-46.64N,141-36.09E,179,21.989,
669,2023/9/23,11:08,41-46.36N,141-36.10E,178,21.861,
670,2023/9/23,11:09,41-46.07N,141-36.11E,178,21.815,
671,2023/9/23,11:10,41-45.80N,141-36.12E,177,22.189,
672,2023/9/23,11:11,41-45.50N,141-36.13E,177,22.644,
673,2023/9/23,11:12,41-45.24N,141-36.15E,177,23.081,
674,2023/9/23,11:13,41-44.96N,141-36.17E,177,23.358,
675,2023/9/23,11:14,41-44.67N,141-36.19E,176,23.756,
676,2023/9/23,11:15,41-44.40N,141-36.21E,176,23.776,
677,2023/9/23,11:16,41-44.11N,141-36.23E,176,23.812,
678,2023/9/23,11:17,41-43.83N,141-36.25E,176,23.758,
679,2023/9/23,11:18,41-43.55N,141-36.27E,176,23.288,
680,2023/9/23,11:19,41-43.26N,141-36.29E,176,22.735,
681,2023/9/23,11:20,41-42.98N,141-36.31E,176,22.364,
682,2023/9/23,11:21,41-42.69N,141-36.34E,175,21.972,
683,2023/9/23,11:22,41-42.42N,141-36.37E,176,21.843,
684,2023/9/23,11:23,41-42.13N,141-36.40E,175,21.51,
685,2023/9/23,11:24,41-41.85N,141-36.43E,174,21.019,
686,2023/9/23,11:25,41-41.58N,141-36.47E,173,20.979,
687,2023/9/23,11:26,41-41.29N,141-36.50E,174,21.153,
688,2023/9/23,11:27,41-41.00N,141-36.55E,171,20.793,
689,2023/9/23,11:28,41-40.73N,141-36.61E,171,21.319,
690,2023/9/23,11:29,41-40.42N,141-36.67E,171,22.029,
691,2023/9/23,11:30,41-40.15N,141-36.73E,170,22.202,
692,2023/9/23,11:31,41-39.87N,141-36.79E,171,22.17,
693,2023/9/23,11:32,41-39.57N,141-36.86E,169,22.178,
694,2023/9/23,11:33,41-39.28N,141-36.93E,169,22.321,
695,2023/9/23,11:34,41-38.99N,141-37.00E,169,22.322,
696,2023/9/23,11:35,41-38.70N,141-37.08E,168,22.28,
697,2023/9/23,11:36,41-38.40N,141-37.16E,168,22.712,
698,2023/9/23,11:37,41-38.10N,141-37.25E,168,23.277,
699,2023/9/23,11:38,41-37.81N,141-37.30E,172,23.677,
700,2023/9/23,11:39,41-37.50N,141-37.34E,176,23.843,
701,2023/9/23,11:40,41-37.22N,141-37.35E,178,23.905,
702,2023/9/23,11:41,41-36.91N,141-37.36E,178,23.902,
703,2023/9/23,11:42,41-36.62N,141-37.37E,178,24.003,
704,2023/9/23,11:43,41-36.33N,141-37.39E,177,24.101,
705,2023/9/23,11:44,41-36.01N,141-37.40E,177,24.226,
706,2023/9/23,11:45,41-35.73N,141-37.41E,178,24.207,
707,2023/9/23,11:46,41-35.43N,141-37.42E,178,24.299,
708,2023/9/23,11:47,41-35.12N,141-37.43E,178,24.222,
709,2023/9/23,11:48,41-34.83N,141-37.44E,178,24.155,
710,2023/9/23,11:49,41-34.52N,141-37.45E,178,24.121,
711,2023/9/23,11:50,41-34.22N,141-37.45E,179,24.026,
712,2023/9/23,11:51,41-33.91N,141-37.45E,179,24.032,
713,2023/9/23,11:52,41-33.60N,141-37.45E,180,24.013,
714,2023/9/23,11:53,41-33.30N,141-37.45E,180,23.875,
715,2023/9/23,11:54,41-32.99N,141-37.44E,180,23.817,
716,2023/9/23,11:55,41-32.69N,141-37.44E,180,23.772,
717,2023/9/23,11:56,41-32.38N,141-37.43E,180,23.742,
718,2023/9/23,11:57,41-32.07N,141-37.43E,180,23.749,
719,2023/9/23,11:58,41-31.75N,141-37.42E,181,23.75,
720,2023/9/23,11:59,41-31.45N,141-37.41E,181,23.763,
721,2023/9/23,12:00,41-31.15N,141-37.39E,182,23.807,
722,2023/9/23,12:01,41-30.85N,141-37.38E,182,23.832,
723,2023/9/23,12:02,41-30.55N,141-37.35E,183,23.676,
724,2023/9/23,12:03,41-30.25N,141-37.33E,183,23.44,
725,2023/9/23,12:04,41-29.95N,141-37.30E,183,23.235,
726,2023/9/23,12:05,41-29.65N,141-37.27E,185,23.124,
727,2023/9/23,12:06,41-29.37N,141-37.23E,185,22.929,
728,2023/9/23,12:07,41-29.08N,141-37.20E,185,22.9,
729,2023/9/23,12:08,41-28.79N,141-37.16E,185,22.929,
730,2023/9/23,12:09,41-28.51N,141-37.14E,182,22.907,
731,2023/9/23,12:10,41-28.22N,141-37.13E,181,22.875,
732,2023/9/23,12:11,41-27.95N,141-37.12E,181,22.909,
733,2023/9/23,12:12,41-27.66N,141-37.10E,182,22.801,
734,2023/9/23,12:13,41-27.38N,141-37.09E,182,22.803,
735,2023/9/23,12:14,41-27.09N,141-37.07E,182,22.846,
736,2023/9/23,12:15,41-26.82N,141-37.05E,182,22.805,
737,2023/9/23,12:16,41-26.54N,141-37.03E,182,23.018,
738,2023/9/23,12:17,41-26.26N,141-37.01E,183,23.093,
739,2023/9/23,12:18,41-26.00N,141-37.00E,179,22.946,
740,2023/9/23,12:19,41-25.73N,141-37.02E,176,22.967,
741,2023/9/23,12:20,41-25.45N,141-37.04E,175,22.976,
742,2023/9/23,12:21,41-25.20N,141-37.07E,174,22.989,
743,2023/9/23,12:22,41-24.93N,141-37.11E,174,23.042,
744,2023/9/23,12:23,41-24.67N,141-37.14E,175,23.043,
745,2023/9/23,12:24,41-24.40N,141-37.16E,177,23.022,
746,2023/9/23,12:25,41-24.13N,141-37.19E,175,23.026,
747,2023/9/23,12:26,41-23.86N,141-37.21E,176,23.025,
748,2023/9/23,12:27,41-23.59N,141-37.24E,176,23.059,
749,2023/9/23,12:28,41-23.33N,141-37.25E,177,23.214,
750,2023/9/23,12:29,41-23.06N,141-37.27E,177,23.317,
751,2023/9/23,12:30,41-22.80N,141-37.29E,175,23.459,
752,2023/9/23,12:31,41-22.54N,141-37.33E,173,23.558,
753,2023/9/23,12:32,41-22.27N,141-37.37E,173,23.588,
754,2023/9/23,12:33,41-22.01N,141-37.41E,172,23.616,
755,2023/9/23,12:34,41-21.74N,141-37.46E,172,23.661,
756,2023/9/23,12:35,41-21.48N,141-37.51E,171,23.732,
757,2023/9/23,12:36,41-21.21N,141-37.56E,172,23.798,
758,2023/9/23,12:37,41-20.94N,141-37.61E,172,23.823,
759,2023/9/23,12:38,41-20.67N,141-37.65E,172,23.835,
760,2023/9/23,12:39,41-20.40N,141-37.70E,172,23.843,
761,2023/9/23,12:40,41-20.12N,141-37.75E,172,23.853,
762,2023/9/23,12:41,41-19.86N,141-37.79E,173,23.878,
763,2023/9/23,12:42,41-19.58N,141-37.84E,172,23.89,
764,2023/9/23,12:43,41-19.31N,141-37.90E,171,23.87,
765,2023/9/23,12:44,41-19.04N,141-37.95E,172,23.845,
766,2023/9/23,12:45,41-18.76N,141-38.00E,171,23.819,
767,2023/9/23,12:46,41-18.50N,141-38.06E,170,23.855,
768,2023/9/23,12:47,41-18.22N,141-38.12E,171,23.861,
769,2023/9/23,12:48,41-17.95N,141-38.18E,170,23.859,
770,2023/9/23,12:49,41-17.66N,141-38.24E,169,23.819,
771,2023/9/23,12:50,41-17.42N,141-38.31E,166,23.748,
772,2023/9/23,12:51,41-17.15N,141-38.40E,165,23.634,
773,2023/9/23,12:52,41-16.88N,141-38.49E,165,23.591,
774,2023/9/23,12:53,41-16.62N,141-38.58E,165,23.589,
775,2023/9/23,12:54,41-16.34N,141-38.67E,165,23.578,
776,2023/9/23,12:55,41-16.08N,141-38.77E,165,23.583,
777,2023/9/23,12:56,41-15.82N,141-38.86E,164,23.602,
778,2023/9/23,12:57,41-15.55N,141-38.96E,164,23.602,
779,2023/9/23,12:58,41-15.28N,141-39.05E,164,23.635,
780,2023/9/23,12:59,41-15.01N,141-39.15E,164,23.63,
781,2023/9/23,13:00,41-14.76N,141-39.24E,164,23.655,
782,2023/9/23,13:01,41-14.49N,141-39.34E,164,23.688,
783,2023/9/23,13:02,41-14.23N,141-39.43E,164,23.715,
784,2023/9/23,13:03,41-13.98N,141-39.53E,164,23.723,
785,2023/9/23,13:04,41-13.71N,141-39.63E,164,23.723,
786,2023/9/23,13:05,41-13.46N,141-39.72E,163,23.723,
787,2023/9/23,13:06,41-13.20N,141-39.83E,163,23.734,
788,2023/9/23,13:07,41-12.95N,141-39.92E,163,23.745,
789,2023/9/23,13:08,41-12.69N,141-40.02E,163,23.731,
790,2023/9/23,13:09,41-12.43N,141-40.12E,163,23.729,
791,2023/9/23,13:10,41-12.18N,141-40.22E,164,23.717,
792,2023/9/23,13:11,41-11.93N,141-40.31E,164,23.715,
793,2023/9/23,13:12,41-11.67N,141-40.41E,164,23.721,
794,2023/9/23,13:13,41-11.42N,141-40.50E,164,23.716,
795,2023/9/23,13:14,41-11.17N,141-40.59E,164,23.714,
796,2023/9/23,13:15,41-10.92N,141-40.68E,164,23.713,
797,2023/9/23,13:16,41-10.66N,141-40.77E,164,23.706,
798,2023/9/23,13:17,41-10.41N,141-40.86E,164,23.715,
799,2023/9/23,13:18,41-10.16N,141-40.96E,164,23.721,
800,2023/9/23,13:19,41-09.90N,141-41.05E,165,23.711,
801,2023/9/23,13:20,41-09.65N,141-41.13E,165,23.717,
802,2023/9/23,13:21,41-09.39N,141-41.23E,164,23.707,
803,2023/9/23,13:22,41-09.14N,141-41.32E,164,23.701,
804,2023/9/23,13:23,41-08.89N,141-41.41E,165,23.686,
805,2023/9/23,13:24,41-08.63N,141-41.49E,165,23.687,
806,2023/9/23,13:25,41-08.37N,141-41.58E,165,23.68,
807,2023/9/23,13:26,41-08.11N,141-41.67E,165,23.656,
808,2023/9/23,13:27,41-07.86N,141-41.76E,165,23.637,
809,2023/9/23,13:28,41-07.61N,141-41.85E,165,23.628,
810,2023/9/23,13:29,41-07.35N,141-41.93E,165,23.622,
811,2023/9/23,13:30,41-07.09N,141-42.02E,165,23.625,
812,2023/9/23,13:31,41-06.83N,141-42.11E,165,23.617,
813,2023/9/23,13:32,41-06.57N,141-42.20E,165,23.591,
814,2023/9/23,13:33,41-06.32N,141-42.28E,166,23.586,
815,2023/9/23,13:34,41-06.06N,141-42.36E,166,23.584,
816,2023/9/23,13:35,41-05.80N,141-42.44E,166,23.576,
817,2023/9/23,13:36,41-05.55N,141-42.53E,166,23.583,
818,2023/9/23,13:37,41-05.29N,141-42.61E,166,23.592,
819,2023/9/23,13:38,41-05.03N,141-42.69E,166,23.598,
820,2023/9/23,13:39,41-04.78N,141-42.77E,166,23.592,
821,2023/9/23,13:40,41-04.52N,141-42.85E,166,23.587,
822,2023/9/23,13:41,41-04.26N,141-42.93E,167,23.586,
823,2023/9/23,13:42,41-04.00N,141-43.01E,166,23.581,
824,2023/9/23,13:43,41-03.75N,141-43.08E,167,23.575,
825,2023/9/23,13:44,41-03.49N,141-43.16E,167,23.566,
826,2023/9/23,13:45,41-03.23N,141-43.23E,167,23.546,
827,2023/9/23,13:46,41-02.98N,141-43.31E,167,23.54,
828,2023/9/23,13:47,41-02.71N,141-43.39E,167,23.526,
829,2023/9/23,13:48,41-02.46N,141-43.46E,167,23.484,
830,2023/9/23,13:49,41-02.21N,141-43.54E,166,23.465,
831,2023/9/23,13:50,41-01.94N,141-43.62E,166,23.452,
832,2023/9/23,13:51,41-01.69N,141-43.70E,167,23.447,
833,2023/9/23,13:52,41-01.43N,141-43.77E,167,23.445,
834,2023/9/23,13:53,41-01.18N,141-43.85E,167,23.442,
835,2023/9/23,13:54,41-00.92N,141-43.93E,167,23.439,
836,2023/9/23,13:55,41-00.65N,141-44.01E,167,23.436,
837,2023/9/23,13:56,41-00.41N,141-44.08E,167,23.436,
838,2023/9/23,13:57,41-00.14N,141-44.15E,167,23.43,
839,2023/9/23,13:58,40-59.89N,141-44.22E,167,23.435,
840,2023/9/23,13:59,40-59.63N,141-44.30E,167,23.436,
841,2023/9/23,14:00,40-59.36N,141-44.37E,168,23.446,
842,2023/9/23,14:01,40-59.11N,141-44.44E,168,23.445,
843,2023/9/23,14:02,40-58.85N,141-44.51E,168,23.446,
844,2023/9/23,14:03,40-58.59N,141-44.57E,169,23.449,
845,2023/9/23,14:04,40-58.33N,141-44.64E,168,23.459,
846,2023/9/23,14:05,40-58.07N,141-44.71E,168,23.47,
847,2023/9/23,14:06,40-57.82N,141-44.78E,169,23.476,
848,2023/9/23,14:07,40-57.55N,141-44.84E,169,23.47,
849,2023/9/23,14:08,40-57.30N,141-44.90E,169,23.475,
850,2023/9/23,14:09,40-57.04N,141-44.97E,169,23.479,
851,2023/9/23,14:10,40-56.77N,141-45.03E,169,23.477,
852,2023/9/23,14:11,40-56.52N,141-45.09E,170,23.476,
853,2023/9/23,14:12,40-56.26N,141-45.15E,170,23.467,
854,2023/9/23,14:13,40-56.01N,141-45.21E,170,23.463,
855,2023/9/23,14:14,40-55.74N,141-45.26E,170,23.461,
856,2023/9/23,14:15,40-55.48N,141-45.32E,170,23.449,
857,2023/9/23,14:16,40-55.23N,141-45.38E,170,23.447,
858,2023/9/23,14:17,40-54.96N,141-45.43E,170,23.435,
859,2023/9/23,14:18,40-54.70N,141-45.48E,172,23.427,
860,2023/9/23,14:19,40-54.44N,141-45.51E,175,23.418,
861,2023/9/23,14:20,40-54.17N,141-45.53E,176,23.419,
862,2023/9/23,14:21,40-53.91N,141-45.55E,176,23.413,
863,2023/9/23,14:22,40-53.65N,141-45.57E,176,23.409,
864,2023/9/23,14:23,40-53.39N,141-45.59E,177,23.402,
865,2023/9/23,14:24,40-53.13N,141-45.61E,177,23.397,
866,2023/9/23,14:25,40-52.86N,141-45.62E,177,23.392,
867,2023/9/23,14:26,40-52.61N,141-45.64E,177,23.392,
868,2023/9/23,14:27,40-52.34N,141-45.66E,176,23.383,
869,2023/9/23,14:28,40-52.09N,141-45.69E,174,23.374,
870,2023/9/23,14:29,40-51.83N,141-45.72E,173,23.363,
871,2023/9/23,14:30,40-51.56N,141-45.76E,173,23.35,
872,2023/9/23,14:31,40-51.32N,141-45.80E,173,23.353,
873,2023/9/23,14:32,40-51.05N,141-45.84E,173,23.377,
874,2023/9/23,14:33,40-50.80N,141-45.88E,171,23.378,
875,2023/9/23,14:34,40-50.55N,141-45.94E,168,23.394,
876,2023/9/23,14:35,40-50.29N,141-46.02E,167,23.405,
877,2023/9/23,14:36,40-50.04N,141-46.09E,167,23.417,
878,2023/9/23,14:37,40-49.76N,141-46.17E,167,23.511,
879,2023/9/23,14:38,40-49.50N,141-46.24E,167,23.562,
880,2023/9/23,14:39,40-49.26N,141-46.32E,167,23.603,
881,2023/9/23,14:40,40-49.03N,141-46.38E,167,23.608,
882,2023/9/23,14:41,40-48.77N,141-46.46E,167,23.608,
883,2023/9/23,14:42,40-48.49N,141-46.54E,167,23.623,
884,2023/9/23,14:43,40-48.24N,141-46.61E,167,23.631,
885,2023/9/23,14:44,40-47.99N,141-46.69E,167,23.622,
886,2023/9/23,14:45,40-47.73N,141-46.76E,167,23.638,
887,2023/9/23,14:46,40-47.48N,141-46.83E,167,23.646,
888,2023/9/23,14:47,40-47.22N,141-46.91E,167,23.661,
889,2023/9/23,14:48,40-46.97N,141-46.98E,167,23.681,
890,2023/9/23,14:49,40-46.72N,141-47.06E,167,23.691,
891,2023/9/23,14:50,40-46.46N,141-47.14E,166,23.702,
892,2023/9/23,14:51,40-46.20N,141-47.21E,167,23.705,
893,2023/9/23,14:52,40-45.94N,141-47.29E,167,23.713,
894,2023/9/23,14:53,40-45.69N,141-47.37E,167,23.737,
895,2023/9/23,14:54,40-45.43N,141-47.45E,166,23.753,
896,2023/9/23,14:55,40-45.17N,141-47.53E,167,23.761,
897,2023/9/23,14:56,40-44.90N,141-47.61E,166,23.762,
898,2023/9/23,14:57,40-44.66N,141-47.69E,166,23.776,
899,2023/9/23,14:58,40-44.41N,141-47.76E,167,23.794,
900,2023/9/23,14:59,40-44.15N,141-47.84E,167,23.809,
901,2023/9/23,15:00,40-43.88N,141-47.92E,166,23.831,
902,2023/9/23,15:01,40-43.62N,141-48.00E,167,23.845,
903,2023/9/23,15:02,40-43.36N,141-48.08E,167,23.86,
904,2023/9/23,15:03,40-43.11N,141-48.16E,166,23.883,
905,2023/9/23,15:04,40-42.85N,141-48.25E,165,23.913,
906,2023/9/23,15:05,40-42.59N,141-48.33E,165,23.948,
907,2023/9/23,15:06,40-42.37N,141-48.41E,165,23.99,
908,2023/9/23,15:07,40-42.11N,141-48.49E,165,24.039,
909,2023/9/23,15:08,40-41.86N,141-48.57E,165,24.067,
910,2023/9/23,15:09,40-41.60N,141-48.66E,165,24.069,
911,2023/9/23,15:10,40-41.34N,141-48.75E,165,24.065,
912,2023/9/23,15:11,40-41.08N,141-48.84E,165,24.069,
913,2023/9/23,15:12,40-40.82N,141-48.92E,165,24.076,
914,2023/9/23,15:13,40-40.56N,141-49.01E,165,24.083,
915,2023/9/23,15:14,40-40.30N,141-49.10E,165,24.107,
916,2023/9/23,15:15,40-40.03N,141-49.18E,166,24.12,
917,2023/9/23,15:16,40-39.77N,141-49.27E,166,24.131,
918,2023/9/23,15:17,40-39.49N,141-49.35E,166,24.129,
919,2023/9/23,15:18,40-39.24N,141-49.43E,166,24.142,
920,2023/9/23,15:19,40-38.96N,141-49.52E,166,24.144,
921,2023/9/23,15:20,40-38.70N,141-49.60E,166,24.139,
922,2023/9/23,15:21,40-38.43N,141-49.68E,166,24.13,
923,2023/9/23,15:22,40-38.16N,141-49.77E,166,24.123,
924,2023/9/23,15:23,40-37.89N,141-49.86E,166,24.112,
925,2023/9/23,15:24,40-37.62N,141-49.94E,166,24.099,
926,2023/9/23,15:25,40-37.34N,141-50.04E,165,24.104,
927,2023/9/23,15:26,40-37.08N,141-50.12E,165,24.104,
928,2023/9/23,15:27,40-36.81N,141-50.21E,165,24.078,
929,2023/9/23,15:28,40-36.53N,141-50.30E,166,24.069,
930,2023/9/23,15:29,40-36.27N,141-50.39E,165,24.059,
931,2023/9/23,15:30,40-35.99N,141-50.48E,166,24.025,
932,2023/9/23,15:31,40-35.72N,141-50.58E,166,24.007,
933,2023/9/23,15:32,40-35.45N,141-50.66E,165,23.991,
934,2023/9/23,15:33,40-35.18N,141-50.76E,165,23.968,
935,2023/9/23,15:34,40-34.91N,141-50.85E,165,23.959,
936,2023/9/23,15:35,40-34.63N,141-50.94E,165,23.966,
937,2023/9/23,15:36,40-34.35N,141-51.04E,165,23.982,
938,2023/9/23,15:37,40-34.08N,141-51.13E,165,23.993,
939,2023/9/23,15:38,40-33.82N,141-51.22E,165,23.992,